User: anonymous   Login
Location: Unspecified
(0.0000°N, 0.0000°E)
Time: 21:03:35
(UTC+02:00)
Language:

Iridium 39 - Orbit

View from above orbital plane
View from above orbital plane
View from above satellite
View from above satellite

Ground track
Ground track

The orbit data is extracted from the following two-line orbital elements,

1 25042U 97069D   17177.63418277 +.00000118 +00000-0 +27331-4 0  9995
2 25042 086.3912 015.1828 0016826 283.2380 076.6946 14.46162188027826
Epoch (UTC): 26 June 2017 15:13:13
Eccentricity: 0.0016826
inclination: 86.3912°
perigee height: 726 km
apogee height: 750 km
right ascension of ascending node: 15.1828°
argument of perigee: 283.2380°
revolutions per day: 14.46162188
mean anomaly at epoch: 76.6946°
orbit number at epoch: 2782

The dashed part of the orbit path shows where the satellite is in the earth's shadow,  

DLR